星链-5730 (STARLINK-5730 )

导读 | 星芒AI

STARLINK-5730 是 SpaceX Starlink 项目中的一颗低轨通信卫星,属于第 11 批部署的星链卫星群。该卫星于 2022 年发射,运行在约 550 公里的轨道高度,旨在为全球用户提供高速互联网服务。作为星链网络的一部分,STARLINK-5730 采用先进通信技术,支持宽带数据传输,提升偏远地区的网络覆盖。其设计注重高效能与可持续性,有助于构建全球卫星互联网基础设施。

基本信息
目录编号:
55611
目录名称:
STARLINK-5730
国际标识:
2023-020AU
轨道中心:
EARTH
卫星名称:
星链-5730
卫星全名:
星链-5730 (STARLINK-5730 )
卫星状态:
在轨 (已飞行1043 天)
发射日期:
2023-02-12 UTC
国别 :
美国 (US)
星等 :
--
轨道信息
数据来源 国际轨道数据
星历时间: 2025-12-21T13:02:23+0800
9小时前
查看轨道信息
半长轴: 6937.223km
偏心率: 0.000125
轨道倾角: 43.003°
近地点辐角 273.674°
升交点赤经 58.126°
平近点角 86.396°
近地点: 558.218km
远地点: 559.954km
周期: 95.838分钟
每日圈数: 15.025342
详细信息
固有亮度:
5
最大亮度:
2.5
卫星平台:
Starlink v1.5
覆盖范围:
全球
运营商:
太空探索技术公司
运营商所在国:
美国
制造商(研发单位):
太空探索技术公司
制造商所在国:
美国
使用方式:
暂无
卫星简介
星链(Starlink)计划是由太空探索技术公司(SpaceX)提出的一个巨型低轨卫星互联网星座项目,计划在2019年至2024年间在太空搭建由约1.2万颗卫星组成的“星链”网络,其中1584颗将部署在地球上空550千米处的近地轨道,并从2020年开始工作。该卫星仍在工作。
2D轨道图
3D轨道图
轨道高度分析图
轨道倾角分析图
轨道综合分析图
查看轨道综合分析图